STARLINK-1270, 45237

Orbit data source: Space-Track

STARLINK-1270, 45237 is a payload satellite owned by SpaceX/Seattle (US) in LEO that was launched on Mon, 17 Feb 2020 UTC via an FALCON 9 launch vehicle from the Air Force Eastern Test Range (AFETR). Payload-class satellites include a variety of spacecraft equipped with specific instruments for various scientific and technological missions. These include communications satellites like Starlink; space stations such as the ISS; scientific satellites like the Hubble; Earth observation satellites from companies like Planet Labs, Umbra, and HawkEye 360; GPS; miniature CubeSats for education and research; and military/defense satellites.

Loading next visibility...
Identifier
45237, 2020-012BM
Orbit
LEO
Country
Flag of USUS
Related business
Manufacturer
SpaceX/Seattle
Mission
Operational Commercial Communications
Bus & Motor
STARLINK, Unknown motor
Mass
260 kg wet, ~248 kg dry
Launch date (UTC)
2020-02-17 (6 years ago)
Launch vehicle
FALCON 9
Launch site
Air Force Eastern Test Range (AFETR)
Object type
Payload
Rocket body
Debris
Shape & HBR
Box + 1 Pan, 10.1 m
Radar Cross Section
13.562 m², Large (>1 m²)

Expand to show TLE details & history
Last TLE update: 9 hours ago

TLE from 9 hours ago
0 STARLINK-1270
1 45237U 20012BM  25288.41443778 -.00000912  00000-0 -42304-4 0  9990
2 45237  53.0551 298.7898 0001598 111.5017 248.6143 15.06398947313504
Epoch: 2025-10-15T09:56Z
TLE epoch observation values (Epoch: 2025-10-15T09:56:47.424Z)
Latitude
0.00004°
Longitude
125.40337°
Altitude
548.498 km
Speed
7.589 km/s
True Right ascension
19h 55m 09s
True Declination
0° 00' 00"
Sunlit
Object was in daylight at epoch
Visualization orbit readout
Latitude
Unknown
Longitude
Unknown
Altitude
Unknown
Speed
Unknown
Apparent Right ascension
Unknown
Apparent Declination
Unknown
Sunlit
N/A
Visualization observer readout
Local Sidereal Time
13:55:35
Azimuth
Unknown
Elevation
Unknown
Doppler factor
Unknown
Orbital elements
Apogee altitude
548.592 km
Perigee altitude
546.379 km
Semi-major axis
6,925.622 km
Eccentricity
0.00016
Inclination
53.0551°
RAAN
298.7898°
Arg. of periapsis
111.5017°
True anomaly
248.59725°
Mean anomaly
248.6143°
Eccentric anomaly
248.60578°
Mean motion
3.76578 °/min
Orbital period
95.6 mins
BSTAR
-0.000042304
Loading maneuver chart data...
Computing Atmospheric mass density...
Loading historical data...
Loading historical data...
Loading historical data...
Loading historical data...
Loading historical data...
Loading historical data...
Loading historical data...

Documentation

Showing up to 5 results
|